When you browse on this site, cookies collect data to enhance your experience and personalize the content and advertising you see.
Visit our Privacy Policy to learn more. By continuing to use the site, you agree to this use of cookies and data.
  • în România
  • Lista ţărilor
  • Pe 7 zile
  • Temperatura apei
  • Hartă satelitară
  • Meteo pe hartă
  • Widget-uri
  • user-avatar
    Intrare

    Meteo pe oră la Chachapoyas

    Astăzi, 20 Iulie, Sâmbătă

    Timp Temperatura Precipitaţii Vânt Presiune Umiditate
    00:00 +11°C° 0 mm 1 m/s 572 mmHg 96%
    01:00 +11°C° 0 mm 1 m/s 572 mmHg 97%
    02:00 +11°C° 0 mm 1 m/s 572 mmHg 96%
    03:00 +10°C° 0 mm 1 m/s 572 mmHg 95%
    04:00 +10°C° 0 mm 1 m/s 571 mmHg 95%
    05:00 +10°C° 0 mm 1 m/s 572 mmHg 94%
    06:00 +10°C° 0 mm 1 m/s 572 mmHg 93%
    07:00 +10°C° 0 mm 1 m/s 572 mmHg 93%
    08:00 +13°C° 0 mm 1 m/s 573 mmHg 83%
    09:00 +15°C° 0 mm 1 m/s 575 mmHg 74%
    10:00 +18°C° 0 mm 1 m/s 576 mmHg 64%
    11:00 +19°C° 0 mm 1 m/s 576 mmHg 62%
    12:00 +20°C° 0 mm 1 m/s 576 mmHg 60%
    13:00 +21°C° 0 mm 1 m/s 575 mmHg 58%
    14:00 +20°C° 0.2 mm 1 m/s 575 mmHg 61%
    15:00 +20°C° 0.2 mm 1 m/s 574 mmHg 64%
    16:00 +19°C° 0.2 mm 2 m/s 573 mmHg 67%
    17:00 +18°C° 0.3 mm 1 m/s 573 mmHg 77%
    18:00 +15°C° 0.3 mm 1 m/s 572 mmHg 86%
    19:00 +13°C° 0.3 mm 1 m/s 572 mmHg 96%
    20:00 +13°C° 0.1 mm 1 m/s 572 mmHg 97%
    21:00 +12°C° 0.1 mm 1 m/s 572 mmHg 97%
    22:00 +12°C° 0.1 mm 1 m/s 573 mmHg 97%
    23:00 +12°C° 0 mm 1 m/s 572 mmHg 97%

    Mâine, 21 Iulie, Duminică

    Timp Temperatura Precipitaţii Vânt Presiune Umiditate
    00:00 +12°C° 0 mm 1 m/s 572 mmHg 97%
    01:00 +11°C° 0 mm 1 m/s 572 mmHg 97%
    02:00 +11°C° 0 mm 1 m/s 572 mmHg 96%
    03:00 +11°C° 0 mm 1 m/s 572 mmHg 96%
    04:00 +11°C° 0 mm 1 m/s 571 mmHg 95%
    05:00 +11°C° 0 mm 1 m/s 571 mmHg 95%
    06:00 +11°C° 0 mm 1 m/s 571 mmHg 95%
    07:00 +11°C° 0 mm 1 m/s 572 mmHg 95%
    08:00 +13°C° 0 mm 1 m/s 573 mmHg 85%
    09:00 +16°C° 0 mm 1 m/s 575 mmHg 74%
    10:00 +20°C° 0 mm 1 m/s 576 mmHg 64%
    11:00 +20°C° 0.5 mm 1 m/s 576 mmHg 65%
    12:00 +20°C° 0.5 mm 2 m/s 576 mmHg 66%
    13:00 +20°C° 0.5 mm 2 m/s 575 mmHg 67%
    14:00 +19°C° 1 mm 2 m/s 574 mmHg 72%
    15:00 +19°C° 1 mm 2 m/s 573 mmHg 76%
    16:00 +19°C° 1 mm 1 m/s 572 mmHg 81%
    17:00 +16°C° 0.5 mm 1 m/s 572 mmHg 86%
    18:00 +15°C° 0.5 mm 1 m/s 572 mmHg 91%
    19:00 +13°C° 0.5 mm 1 m/s 571 mmHg 96%
    20:00 +13°C° 0.1 mm 1 m/s 572 mmHg 96%
    21:00 +12°C° 0.1 mm 1 m/s 572 mmHg 97%
    22:00 +12°C° 0.1 mm 1 m/s 572 mmHg 97%
    23:00 +12°C° 0 mm 1 m/s 572 mmHg 96%

    Poimâine, 22 Iulie, Luni

    Timp Temperatura Precipitaţii Vânt Presiune Umiditate
    00:00 +12°C° 0 mm 1 m/s 572 mmHg 96%
    01:00 +12°C° 0 mm 1 m/s 572 mmHg 96%
    02:00 +12°C° 0 mm 1 m/s 572 mmHg 95%
    03:00 +11°C° 0 mm 1 m/s 571 mmHg 95%
    04:00 +11°C° 0 mm 1 m/s 571 mmHg 95%
    05:00 +11°C° 0 mm 1 m/s 571 mmHg 95%
    06:00 +11°C° 0 mm 1 m/s 572 mmHg 94%
    07:00 +11°C° 0 mm 1 m/s 572 mmHg 94%
    08:00 +14°C° 0.1 mm 1 m/s 574 mmHg 86%
    09:00 +16°C° 0.1 mm 1 m/s 575 mmHg 78%
    10:00 +20°C° 0.1 mm 1 m/s 576 mmHg 70%
    11:00 +20°C° 0.8 mm 1 m/s 576 mmHg 73%
    12:00 +19°C° 0.8 mm 1 m/s 575 mmHg 76%
    13:00 +19°C° 0.8 mm 1 m/s 574 mmHg 80%
    14:00 +19°C° 1.6 mm 1 m/s 574 mmHg 82%
    15:00 +19°C° 1.6 mm 1 m/s 573 mmHg 85%
    16:00 +18°C° 1.6 mm 1 m/s 572 mmHg 87%
    17:00 +16°C° 1 mm 1 m/s 572 mmHg 91%
    18:00 +15°C° 1 mm 1 m/s 572 mmHg 94%
    19:00 +13°C° 1 mm 1 m/s 572 mmHg 97%
    20:00 +13°C° 0.3 mm 1 m/s 572 mmHg 97%
    21:00 +13°C° 0.3 mm 1 m/s 572 mmHg 97%
    22:00 +12°C° 0.3 mm 1 m/s 573 mmHg 96%
    23:00 +11°C° 0.1 mm 0 m/s 572 mmHg 96%

    23 Iulie, Marţi

    Timp Temperatura Precipitaţii Vânt Presiune Umiditate
    00:00 +11°C° 0.1 mm 0 m/s 572 mmHg 96%
    01:00 +10°C° 0.1 mm 0 m/s 572 mmHg 96%
    02:00 +10°C° 0 mm 0 m/s 572 mmHg 96%
    03:00 +10°C° 0 mm 0 m/s 572 mmHg 96%
    04:00 +10°C° 0 mm 0 m/s 571 mmHg 96%
    05:00 +11°C° 0 mm 0 m/s 572 mmHg 96%
    06:00 +11°C° 0 mm 0 m/s 572 mmHg 95%
    07:00 +12°C° 0 mm 0 m/s 573 mmHg 95%
    08:00 +13°C° 0.2 mm 0 m/s 574 mmHg 92%
    09:00 +14°C° 0.2 mm 0 m/s 574 mmHg 90%
    10:00 +16°C° 0.2 mm 1 m/s 575 mmHg 87%
    11:00 +18°C° 0.9 mm 1 m/s 575 mmHg 85%
    12:00 +19°C° 0.9 mm 1 m/s 575 mmHg 83%
    13:00 +20°C° 0.9 mm 1 m/s 575 mmHg 80%
    14:00 +19°C° 1.2 mm 1 m/s 574 mmHg 82%
    15:00 +19°C° 1.2 mm 1 m/s 573 mmHg 84%
    16:00 +18°C° 1.2 mm 1 m/s 572 mmHg 87%
    17:00 +16°C° 0.6 mm 1 m/s 572 mmHg 90%
    18:00 +15°C° 0.6 mm 1 m/s 572 mmHg 93%
    19:00 +13°C° 0.6 mm 1 m/s 572 mmHg 96%
    20:00 +13°C° 0 mm 1 m/s 572 mmHg 96%
    21:00 +13°C° 0 mm 1 m/s 572 mmHg 96%
    22:00 +12°C° 0 mm 1 m/s 572 mmHg 96%
    23:00 +12°C° 0 mm 1 m/s 572 mmHg 96%

    24 Iulie, Miercuri

    Timp Temperatura Precipitaţii Vânt Presiune Umiditate
    00:00 +12°C° 0 mm 1 m/s 573 mmHg 96%
    01:00 +12°C° 0 mm 1 m/s 573 mmHg 96%
    02:00 +11°C° 0 mm 0 m/s 572 mmHg 96%
    03:00 +12°C° 0 mm 0 m/s 572 mmHg 96%
    04:00 +12°C° 0 mm 0 m/s 572 mmHg 96%
    05:00 +12°C° 0.3 mm 0 m/s 572 mmHg 96%
    06:00 +12°C° 0.3 mm 0 m/s 573 mmHg 96%
    07:00 +12°C° 0.3 mm 0 m/s 573 mmHg 97%
    08:00 +12°C° 0.4 mm 0 m/s 573 mmHg 95%
    09:00 +13°C° 0.4 mm 0 m/s 574 mmHg 93%
    10:00 +14°C° 0.4 mm 0 m/s 575 mmHg 91%
    11:00 +15°C° 0.7 mm 0 m/s 575 mmHg 88%
    12:00 +16°C° 0.7 mm 0 m/s 574 mmHg 85%
    13:00 +17°C° 0.7 mm 0 m/s 574 mmHg 82%
    14:00 +19°C° 1.4 mm 1 m/s 574 mmHg 84%
    15:00 +18°C° 1.4 mm 1 m/s 573 mmHg 85%
    16:00 +18°C° 1.4 mm 1 m/s 572 mmHg 87%
    17:00 +16°C° 1 mm 1 m/s 572 mmHg 90%
    18:00 +15°C° 1 mm 1 m/s 572 mmHg 94%
    19:00 +13°C° 1 mm 1 m/s 571 mmHg 97%
    20:00 +13°C° 0.3 mm 1 m/s 572 mmHg 97%
    21:00 +13°C° 0.3 mm 1 m/s 572 mmHg 97%
    22:00 +12°C° 0.3 mm 1 m/s 572 mmHg 97%
    23:00 +12°C° 0.1 mm 1 m/s 572 mmHg 97%

    25 Iulie, Joi

    Timp Temperatura Precipitaţii Vânt Presiune Umiditate
    00:00 +12°C° 0.1 mm 1 m/s 572 mmHg 97%
    01:00 +12°C° 0.1 mm 1 m/s 572 mmHg 96%
    02:00 +12°C° 0.1 mm 1 m/s 572 mmHg 96%
    03:00 +12°C° 0.1 mm 1 m/s 571 mmHg 96%
    04:00 +12°C° 0.1 mm 1 m/s 571 mmHg 95%
    05:00 +11°C° 0 mm 1 m/s 571 mmHg 95%
    06:00 +11°C° 0 mm 1 m/s 572 mmHg 95%
    07:00 +11°C° 0 mm 1 m/s 572 mmHg 95%
    08:00 +14°C° 0 mm 1 m/s 574 mmHg 84%
    09:00 +16°C° 0 mm 1 m/s 575 mmHg 74%
    10:00 +20°C° 0 mm 1 m/s 577 mmHg 63%
    11:00 +20°C° 0.2 mm 1 m/s 576 mmHg 61%
    12:00 +21°C° 0.2 mm 1 m/s 576 mmHg 59%
    13:00 +21°C° 0.2 mm 1 m/s 575 mmHg 57%
    14:00 +20°C° 0.5 mm 1 m/s 574 mmHg 65%
    15:00 +19°C° 0.5 mm 1 m/s 573 mmHg 72%
    16:00 +17°C° 0.5 mm 2 m/s 573 mmHg 80%
    17:00 +16°C° 0.5 mm 1 m/s 572 mmHg 85%
    18:00 +14°C° 0.5 mm 1 m/s 572 mmHg 91%
    19:00 +13°C° 0.5 mm 1 m/s 572 mmHg 96%
    20:00 +13°C° 0.2 mm 1 m/s 572 mmHg 96%
    21:00 +12°C° 0.2 mm 1 m/s 573 mmHg 97%
    22:00 +12°C° 0.2 mm 1 m/s 573 mmHg 97%
    23:00 +12°C° 0 mm 1 m/s 573 mmHg 97%
    Arată mai mult